| time (UTC) | temp F | wind direction | speed MPH | gust MPH | rain 1hr in | rain 24hr in | rain mn in | humidity % | barometer mb |
| 20260831022215 | 63 | 276 | 2.0 | 3.0 | 0.00 | 0.00 | 0.00 | 75 | 1012.8 |
| 20260831021717 | 63 | 290 | 2.0 | 4.0 | 0.00 | 0.00 | 0.00 | 75 | 1012.8 |
| 20260831021209 | 63 | 282 | 2.0 | 4.0 | 0.00 | 0.00 | 0.00 | 75 | 1012.9 |
| 20260831020216 | 63 | 271 | 2.0 | 4.0 | 0.00 | 0.00 | 0.00 | 74 | 1012.8 |
| 20260831015706 | 63 | 262 | 2.0 | 4.0 | 0.00 | 0.00 | 0.00 | 74 | 1012.8 |
| 20260831015207 | 63 | 254 | 2.0 | 4.0 | 0.00 | 0.00 | 0.00 | 74 | 1012.8 |
| 20260831014713 | 63 | 262 | 2.0 | 4.0 | 0.00 | 0.00 | 0.00 | 74 | 1012.8 |
| 20260831014210 | 63 | 245 | 3.0 | 4.0 | 0.00 | 0.00 | 0.00 | 74 | 1012.9 |
| 20260831013709 | 63 | 239 | 2.0 | 4.0 | 0.00 | 0.00 | 0.00 | 74 | 1012.9 |
| 20260831013218 | 63 | 233 | 1.0 | 3.0 | 0.00 | 0.00 | 0.00 | 74 | 1013.0 |
| 20260831011710 | 64 | 237 | 3.0 | 6.0 | 0.00 | 0.00 | 0.00 | 74 | 1012.9 |
| 20260831011210 | 64 | 249 | 3.0 | 6.0 | 0.00 | 0.00 | 0.00 | 74 | 1012.9 |
| 20260831010710 | 64 | 265 | 3.0 | 7.0 | 0.00 | 0.00 | 0.00 | 74 | 1012.9 |
| 20260831004705 | 64 | 261 | 4.0 | 7.0 | 0.00 | 0.00 | 0.00 | 73 | 1013.1 |
| 20260831004205 | 64 | 276 | 4.0 | 6.0 | 0.00 | 0.00 | 0.00 | 73 | 1013.1 |
| 20260831003708 | 65 | 267 | 4.0 | 6.0 | 0.00 | 0.00 | 0.00 | 72 | 1013.1 |
| 20260831002721 | 65 | 254 | 3.0 | 6.0 | 0.00 | 0.00 | 0.00 | 70 | 1013.2 |
| 20260831002217 | 65 | 261 | 3.0 | 4.0 | 0.00 | 0.00 | 0.00 | 70 | 1013.3 |
| 20260831001709 | 66 | 243 | 2.0 | 4.0 | 0.00 | 0.00 | 0.00 | 70 | 1013.3 |
| 20260831001235 | 66 | 246 | 1.0 | 2.0 | 0.00 | 0.00 | 0.00 | 70 | 1013.3 |
| 20260831000715 | 66 | 261 | 1.0 | 2.0 | 0.00 | 0.00 | 0.00 | 69 | 1013.3 |
| 20260831000244 | 67 | 261 | 0.0 | 2.0 | 0.00 | 0.00 | 0.00 | 69 | 1013.3 |
| 20260830235708 | 67 | 261 | 1.0 | 2.0 | 0.00 | 0.00 | 0.00 | 68 | 1013.3 |
| 20260830235210 | 67 | 261 | 1.0 | 2.0 | 0.00 | 0.00 | 0.00 | 67 | 1013.3 |
| 20260830234707 | 67 | 261 | 0.0 | 2.0 | 0.00 | 0.00 | 0.00 | 68 | 1013.4 |
| 20260830234209 | 67 | 261 | 0.0 | 2.0 | 0.00 | 0.00 | 0.00 | 68 | 1013.4 |
| 20260830233715 | 67 | 261 | 0.0 | 1.0 | 0.00 | 0.00 | 0.00 | 67 | 1013.4 |
| 20260830233210 | 67 | 261 | 0.0 | 2.0 | 0.00 | 0.00 | 0.00 | 67 | 1013.4 |
| 20260830232706 | 67 | 261 | 0.0 | 2.0 | 0.00 | 0.00 | 0.00 | 66 | 1013.4 |
| 20260830232208 | 67 | 261 | 0.0 | 2.0 | 0.00 | 0.00 | 0.00 | 66 | 1013.4 |
| 20260830231711 | 67 | 261 | 0.0 | 2.0 | 0.00 | 0.00 | 0.00 | 66 | 1013.4 |
| 20260830231213 | 67 | 261 | 1.0 | 3.0 | 0.00 | 0.00 | 0.00 | 66 | 1013.3 |
| 20260830230218 | 68 | 259 | 2.0 | 3.0 | 0.00 | 0.00 | 0.00 | 66 | 1013.4 |
| 20260830225713 | 68 | 267 | 2.0 | 3.0 | 0.00 | 0.00 | 0.00 | 66 | 1013.5 |
| 20260830225213 | 68 | 277 | 2.0 | 3.0 | 0.00 | 0.00 | 0.00 | 66 | 1013.5 |
| 20260830224206 | 68 | 266 | 2.0 | 3.0 | 0.00 | 0.00 | 0.00 | 65 | 1013.6 |
| 20260830223707 | 68 | 266 | 2.0 | 3.0 | 0.00 | 0.00 | 0.00 | 65 | 1013.7 |
| 20260830223213 | 68 | 275 | 2.0 | 4.0 | 0.00 | 0.00 | 0.00 | 65 | 1013.6 |
| 20260830222706 | 68 | 250 | 2.0 | 4.0 | 0.00 | 0.00 | 0.00 | 64 | 1013.6 |
| 20260830222219 | 68 | 250 | 3.0 | 5.0 | 0.00 | 0.00 | 0.00 | 65 | 1013.6 |
| 20260830221716 | 68 | 254 | 3.0 | 7.0 | 0.00 | 0.00 | 0.00 | 65 | 1013.6 |
| 20260830221218 | 68 | 273 | 3.0 | 7.0 | 0.00 | 0.00 | 0.00 | 65 | 1013.7 |
| 20260830220210 | 69 | 270 | 4.0 | 6.0 | 0.00 | 0.00 | 0.00 | 64 | 1013.6 |
| 20260830215720 | 69 | 249 | 3.0 | 5.0 | 0.00 | 0.00 | 0.00 | 65 | 1013.6 |
| 20260830214715 | 69 | 254 | 3.0 | 4.0 | 0.00 | 0.00 | 0.00 | 64 | 1013.7 |
| 20260830214219 | 69 | 235 | 2.0 | 7.0 | 0.00 | 0.00 | 0.00 | 64 | 1013.7 |
| 20260830213718 | 69 | 243 | 3.0 | 7.0 | 0.00 | 0.00 | 0.00 | 64 | 1013.7 |
| 20260830213218 | 69 | 249 | 4.0 | 7.0 | 0.00 | 0.00 | 0.00 | 64 | 1013.7 |
| 20260830212709 | 69 | 256 | 4.0 | 7.0 | 0.00 | 0.00 | 0.00 | 64 | 1013.9 |
| 20260830211213 | 69 | 257 | 2.0 | 4.0 | 0.00 | 0.00 | 0.00 | 63 | 1013.7 |
| 20260830210708 | 69 | 244 | 2.0 | 4.0 | 0.00 | 0.00 | 0.00 | 63 | 1013.7 |
| 20260830210220 | 70 | 245 | 2.0 | 4.0 | 0.00 | 0.00 | 0.00 | 62 | 1013.7 |
| 20260830205711 | 70 | 265 | 2.0 | 3.0 | 0.00 | 0.00 | 0.00 | 61 | 1013.7 |
| 20260830204705 | 70 | 265 | 1.0 | 2.0 | 0.00 | 0.00 | 0.00 | 61 | 1013.7 |
| 20260830203706 | 71 | 286 | 1.0 | 2.0 | 0.00 | 0.00 | 0.00 | 60 | 1013.6 |
| 20260830203206 | 71 | 286 | 1.0 | 4.0 | 0.00 | 0.00 | 0.00 | 60 | 1013.6 |
| 20260830200707 | 73 | 263 | 2.0 | 4.0 | 0.00 | 0.00 | 0.00 | 57 | 1013.6 |
| 20260830200215 | 73 | 271 | 3.0 | 4.0 | 0.00 | 0.00 | 0.00 | 57 | 1013.6 |
| 20260830195210 | 73 | 263 | 2.0 | 4.0 | 0.00 | 0.00 | 0.00 | 57 | 1013.5 |
| 20260830194710 | 73 | 262 | 3.0 | 4.0 | 0.00 | 0.00 | 0.00 | 57 | 1013.6 |
| 20260830194207 | 73 | 223 | 3.0 | 5.0 | 0.00 | 0.00 | 0.00 | 56 | 1013.5 |
| 20260830193207 | 74 | 216 | 2.0 | 5.0 | 0.00 | 0.00 | 0.00 | 55 | 1013.5 |
| 20260830192715 | 74 | 186 | 2.0 | 5.0 | 0.00 | 0.00 | 0.00 | 55 | 1013.5 |
| 20260830192215 | 74 | 178 | 3.0 | 4.0 | 0.00 | 0.00 | 0.00 | 54 | 1013.4 |
| 20260830191709 | 74 | 239 | 2.0 | 4.0 | 0.00 | 0.00 | 0.00 | 54 | 1013.5 |
| 20260830191206 | 75 | 227 | 1.0 | 4.0 | 0.00 | 0.00 | 0.00 | 53 | 1013.4 |
| 20260830190710 | 75 | 168 | 1.0 | 4.0 | 0.00 | 0.00 | 0.00 | 52 | 1013.5 |
| 20260830190216 | 76 | 140 | 1.0 | 3.0 | 0.00 | 0.00 | 0.00 | 52 | 1013.5 |
| 20260830185217 | 77 | 262 | 2.0 | 3.0 | 0.00 | 0.00 | 0.00 | 51 | 1013.5 |
| 20260830183713 | 78 | 71 | 1.0 | 2.0 | 0.00 | 0.00 | 0.00 | 50 | 1013.5 |
| 20260830183207 | 78 | 71 | 1.0 | 3.0 | 0.00 | 0.00 | 0.00 | 49 | 1013.4 |
| 20260830182712 | 79 | 71 | 2.0 | 3.0 | 0.00 | 0.00 | 0.00 | 48 | 1013.3 |
| 20260830182220 | 79 | 71 | 2.0 | 3.0 | 0.00 | 0.00 | 0.00 | 48 | 1013.2 |
| 20260830181713 | 80 | 71 | 2.0 | 3.0 | 0.00 | 0.00 | 0.00 | 47 | 1013.2 |
| 20260830181219 | 80 | 71 | 2.0 | 3.0 | 0.00 | 0.00 | 0.00 | 46 | 1013.1 |
| 20260830180716 | 81 | 71 | 2.0 | 3.0 | 0.00 | 0.00 | 0.00 | 46 | 1013.1 |
| 20260830180216 | 81 | 71 | 2.0 | 3.0 | 0.00 | 0.00 | 0.00 | 45 | 1013.1 |
| 20260830175711 | 81 | 70 | 2.0 | 3.0 | 0.00 | 0.00 | 0.00 | 45 | 1013.1 |
| 20260830175217 | 81 | 88 | 2.0 | 7.0 | 0.00 | 0.00 | 0.00 | 44 | 1013.0 |
| 20260830174710 | 82 | 98 | 3.0 | 7.0 | 0.00 | 0.00 | 0.00 | 43 | 1013.0 |
| 20260830174218 | 82 | 103 | 3.0 | 7.0 | 0.00 | 0.00 | 0.00 | 43 | 1012.9 |
| 20260830173705 | 82 | 114 | 3.0 | 7.0 | 0.00 | 0.00 | 0.00 | 43 | 1012.9 |
| 20260830172709 | 83 | 82 | 4.0 | 8.0 | 0.00 | 0.00 | 0.00 | 42 | 1012.8 |
| 20260830172212 | 83 | 105 | 4.0 | 8.0 | 0.00 | 0.00 | 0.00 | 42 | 1012.8 |
| 20260830171713 | 83 | 107 | 4.0 | 9.0 | 0.00 | 0.00 | 0.00 | 42 | 1012.8 |
| 20260830171215 | 83 | 101 | 5.0 | 9.0 | 0.00 | 0.00 | 0.00 | 42 | 1012.8 |
| 20260830170718 | 84 | 107 | 5.0 | 9.0 | 0.00 | 0.00 | 0.00 | 41 | 1012.7 |
| 20260830170208 | 84 | 120 | 5.0 | 9.0 | 0.00 | 0.00 | 0.00 | 41 | 1012.7 |
| 20260830165719 | 84 | 76 | 6.0 | 9.0 | 0.00 | 0.00 | 0.00 | 41 | 1012.7 |
| 20260830165207 | 85 | 82 | 5.0 | 10.0 | 0.00 | 0.00 | 0.00 | 40 | 1012.7 |
| 20260830164713 | 85 | 81 | 6.0 | 10.0 | 0.00 | 0.00 | 0.00 | 40 | 1012.7 |
| 20260830164205 | 85 | 169 | 6.0 | 10.0 | 0.00 | 0.00 | 0.00 | 40 | 1012.7 |
| 20260830163710 | 85 | 110 | 6.0 | 11.0 | 0.00 | 0.00 | 0.00 | 40 | 1012.7 |
| 20260830162707 | 85 | 103 | 8.0 | 12.0 | 0.00 | 0.00 | 0.00 | 39 | 1012.8 |
| 20260830162218 | 85 | 146 | 8.0 | 12.0 | 0.00 | 0.00 | 0.00 | 39 | 1012.8 |
| 20260830161711 | 86 | 98 | 8.0 | 12.0 | 0.00 | 0.00 | 0.00 | 39 | 1012.9 |
| 20260830160220 | 86 | 121 | 6.0 | 11.0 | 0.00 | 0.00 | 0.00 | 39 | 1012.9 |
| 20260830155710 | 86 | 115 | 6.0 | 11.0 | 0.00 | 0.00 | 0.00 | 39 | 1012.9 |
| 20260830155215 | 86 | 140 | 5.0 | 11.0 | 0.00 | 0.00 | 0.00 | 39 | 1012.9 |
| 20260830154717 | 86 | 156 | 5.0 | 11.0 | 0.00 | 0.00 | 0.00 | 39 | 1012.9 |
| 20260830154218 | 86 | 132 | 6.0 | 11.0 | 0.00 | 0.00 | 0.00 | 39 | 1013.0 |
| 20260830153713 | 86 | 148 | 5.0 | 13.0 | 0.00 | 0.00 | 0.00 | 39 | 1013.0 |
| 20260830153207 | 86 | 148 | 6.0 | 13.0 | 0.00 | 0.00 | 0.00 | 38 | 1013.0 |
| 20260830152712 | 86 | 140 | 6.0 | 13.0 | 0.00 | 0.00 | 0.00 | 38 | 1013.1 |
| 20260830152209 | 86 | 127 | 3.0 | 8.0 | 0.00 | 0.00 | 0.00 | 39 | 1013.1 |
| 20260830151716 | 86 | 148 | 3.0 | 8.0 | 0.00 | 0.00 | 0.00 | 38 | 1013.1 |
| 20260830151210 | 86 | 65 | 4.0 | 8.0 | 0.00 | 0.00 | 0.00 | 39 | 1013.2 |
| 20260830150211 | 86 | 126 | 3.0 | 11.0 | 0.00 | 0.00 | 0.00 | 39 | 1013.2 |
| 20260830145714 | 86 | 163 | 4.0 | 11.0 | 0.00 | 0.00 | 0.00 | 38 | 1013.2 |
| 20260830145215 | 86 | 158 | 5.0 | 10.0 | 0.00 | 0.00 | 0.00 | 39 | 1013.2 |
| 20260830144711 | 86 | 82 | 5.0 | 9.0 | 0.00 | 0.00 | 0.00 | 39 | 1013.2 |
| 20260830144207 | 86 | 126 | 4.0 | 9.0 | 0.00 | 0.00 | 0.00 | 40 | 1013.3 |
| 20260830143709 | 85 | 67 | 4.0 | 11.0 | 0.00 | 0.00 | 0.00 | 40 | 1013.3 |
| 20260830143217 | 85 | 111 | 5.0 | 11.0 | 0.00 | 0.00 | 0.00 | 38 | 1013.4 |
| 20260830142705 | 86 | 133 | 5.0 | 11.0 | 0.00 | 0.00 | 0.00 | 39 | 1013.4 |
| 20260830142217 | 86 | 171 | 5.0 | 10.0 | 0.00 | 0.00 | 0.00 | 39 | 1013.4 |
| 20260830141718 | 86 | 163 | 5.0 | 11.0 | 0.00 | 0.00 | 0.00 | 38 | 1013.4 |
| 20260830141233 | 86 | 122 | 4.0 | 13.0 | 0.00 | 0.00 | 0.00 | 38 | 1013.5 |
| 20260830140718 | 86 | 162 | 6.0 | 13.0 | 0.00 | 0.00 | 0.00 | 38 | 1013.5 |
| 20260830140213 | 87 | 142 | 4.0 | 10.0 | 0.00 | 0.00 | 0.00 | 37 | 1013.5 |
| 20260830135707 | 87 | 150 | 3.0 | 8.0 | 0.00 | 0.00 | 0.00 | 37 | 1013.5 |
| 20260830135215 | 87 | 340 | 3.0 | 9.0 | 0.00 | 0.00 | 0.00 | 36 | 1013.5 |
| 20260830134717 | 88 | 115 | 4.0 | 9.0 | 0.00 | 0.00 | 0.00 | 36 | 1013.6 |
| 20260830134209 | 88 | 157 | 4.0 | 9.0 | 0.00 | 0.00 | 0.00 | 36 | 1013.7 |
| 20260830133719 | 89 | 164 | 3.0 | 9.0 | 0.00 | 0.00 | 0.00 | 35 | 1013.7 |
| 20260830133214 | 89 | 176 | 4.0 | 10.0 | 0.00 | 0.00 | 0.00 | 35 | 1013.7 |
| 20260830132712 | 89 | 105 | 4.0 | 10.0 | 0.00 | 0.00 | 0.00 | 36 | 1013.9 |
| 20260830132236 | 89 | 200 | 4.0 | 10.0 | 0.00 | 0.00 | 0.00 | 36 | 1013.9 |
| 20260830131708 | 88 | 96 | 3.0 | 7.0 | 0.00 | 0.00 | 0.00 | 37 | 1013.9 |
| 20260830131208 | 88 | 126 | 4.0 | 7.0 | 0.00 | 0.00 | 0.00 | 37 | 1014.0 |
| 20260830130716 | 87 | 11 | 3.0 | 12.0 | 0.00 | 0.00 | 0.00 | 36 | 1014.0 |
| 20260830130218 | 88 | 355 | 4.0 | 12.0 | 0.00 | 0.00 | 0.00 | 36 | 1014.0 |
| 20260830125711 | 88 | 85 | 4.0 | 11.0 | 0.00 | 0.00 | 0.00 | 36 | 1014.1 |
| 20260830125217 | 88 | 109 | 2.0 | 8.0 | 0.00 | 0.00 | 0.00 | 37 | 1014.0 |
| 20260830124217 | 88 | 277 | 4.0 | 9.0 | 0.00 | 0.00 | 0.00 | 35 | 1014.1 |
| 20260830123715 | 89 | 11 | 4.0 | 9.0 | 0.00 | 0.00 | 0.00 | 36 | 1014.3 |
| 20260830123217 | 88 | 150 | 4.0 | 9.0 | 0.00 | 0.00 | 0.00 | 36 | 1014.3 |
| 20260830122719 | 88 | 157 | 5.0 | 9.0 | 0.00 | 0.00 | 0.00 | 36 | 1014.3 |
| 20260830122219 | 88 | 146 | 4.0 | 12.0 | 0.00 | 0.00 | 0.00 | 37 | 1014.3 |
| 20260830121715 | 88 | 177 | 5.0 | 13.0 | 0.00 | 0.00 | 0.00 | 38 | 1014.4 |
| 20260830121235 | 87 | 152 | 6.0 | 13.0 | 0.00 | 0.00 | 0.00 | 38 | 1014.5 |
| 20260830120713 | 87 | 163 | 4.0 | 13.0 | 0.00 | 0.00 | 0.00 | 38 | 1014.5 |
| 20260830120545 | 87 | 62 | 4.0 | 13.0 | 0.00 | 0.00 | 0.00 | 39 | 1014.5 |
| 20260830115708 | 87 | 128 | 4.0 | 20.0 | 0.00 | 0.00 | 0.00 | 39 | 1014.5 |
| 20260830115206 | 87 | 162 | 5.0 | 20.0 | 0.00 | 0.00 | 0.00 | 40 | 1014.5 |
| 20260830114718 | 87 | 165 | 5.0 | 20.0 | 0.00 | 0.00 | 0.00 | 40 | 1014.6 |
| 20260830114219 | 86 | 69 | 3.0 | 7.0 | 0.00 | 0.00 | 0.00 | 41 | 1014.6 |
| 20260830113715 | 86 | 232 | 3.0 | 8.0 | 0.00 | 0.00 | 0.00 | 41 | 1014.7 |
| 20260830113218 | 85 | 156 | 4.0 | 12.0 | 0.00 | 0.00 | 0.00 | 42 | 1014.8 |
| 20260830112217 | 85 | 351 | 6.0 | 12.0 | 0.00 | 0.00 | 0.00 | 42 | 1014.8 |
| 20260830111739 | 84 | 66 | 5.0 | 8.0 | 0.00 | 0.00 | 0.00 | 43 | 1014.8 |
| 20260830111210 | 84 | 67 | 3.0 | 8.0 | 0.00 | 0.00 | 0.00 | 42 | 1014.9 |
| 20260830110715 | 84 | 18 | 2.0 | 6.0 | 0.00 | 0.00 | 0.00 | 43 | 1015.0 |
| 20260830110209 | 84 | 241 | 2.0 | 7.0 | 0.00 | 0.00 | 0.00 | 43 | 1015.0 |
| 20260830105704 | 84 | 36 | 2.0 | 7.0 | 0.00 | 0.00 | 0.00 | 42 | 1015.1 |
| 20260830105207 | 84 | 68 | 2.0 | 11.0 | 0.00 | 0.00 | 0.00 | 43 | 1015.2 |
| 20260830104221 | 84 | 79 | 6.0 | 13.0 | 0.00 | 0.00 | 0.00 | 44 | 1015.2 |
| 20260830103233 | 83 | 9 | 3.0 | 6.0 | 0.00 | 0.00 | 0.00 | 45 | 1015.2 |
| 20260830102717 | 83 | 78 | 2.0 | 11.0 | 0.00 | 0.00 | 0.00 | 45 | 1015.3 |
| 20260830102219 | 83 | 65 | 3.0 | 11.0 | 0.00 | 0.00 | 0.00 | 45 | 1015.3 |
| 20260830101711 | 83 | 88 | 6.0 | 10.0 | 0.00 | 0.00 | 0.00 | 44 | 1015.4 |
| 20260830100707 | 82 | 92 | 4.0 | 9.0 | 0.00 | 0.00 | 0.00 | 46 | 1015.5 |
| 20260830100213 | 82 | 96 | 4.0 | 9.0 | 0.00 | 0.00 | 0.00 | 47 | 1015.5 |
| 20260830095213 | 82 | 235 | 4.0 | 9.0 | 0.00 | 0.00 | 0.00 | 45 | 1015.6 |
| 20260830094705 | 82 | 232 | 3.0 | 7.0 | 0.00 | 0.00 | 0.00 | 46 | 1015.7 |
| 20260830094221 | 82 | 201 | 3.0 | 10.0 | 0.00 | 0.00 | 0.00 | 45 | 1015.7 |
| 20260830093709 | 82 | 277 | 4.0 | 10.0 | 0.00 | 0.00 | 0.00 | 46 | 1015.7 |
| 20260830093216 | 81 | 99 | 3.0 | 6.0 | 0.00 | 0.00 | 0.00 | 47 | 1015.8 |
| 20260830092711 | 81 | 128 | 3.0 | 6.0 | 0.00 | 0.00 | 0.00 | 48 | 1015.8 |
| 20260830092215 | 81 | 355 | 3.0 | 6.0 | 0.00 | 0.00 | 0.00 | 47 | 1015.8 |
| 20260830091707 | 81 | 0 | 3.0 | 6.0 | 0.00 | 0.00 | 0.00 | 46 | 1015.8 |
| 20260830091221 | 81 | 98 | 2.0 | 6.0 | 0.00 | 0.00 | 0.00 | 47 | 1015.9 |
| 20260830090710 | 81 | 345 | 2.0 | 6.0 | 0.00 | 0.00 | 0.00 | 48 | 1015.9 |
| 20260830090212 | 81 | 71 | 3.0 | 6.0 | 0.00 | 0.00 | 0.00 | 48 | 1015.9 |
| 20260830085715 | 80 | 80 | 3.0 | 6.0 | 0.00 | 0.00 | 0.00 | 47 | 1015.9 |
| 20260830085210 | 80 | 129 | 3.0 | 6.0 | 0.00 | 0.00 | 0.00 | 48 | 1015.9 |
| 20260830084707 | 80 | 150 | 2.0 | 5.0 | 0.00 | 0.00 | 0.00 | 49 | 1016.0 |
| 20260830084218 | 79 | 189 | 2.0 | 5.0 | 0.00 | 0.00 | 0.00 | 49 | 1016.0 |
| 20260830083705 | 79 | 53 | 1.0 | 3.0 | 0.00 | 0.00 | 0.00 | 50 | 1016.0 |
| 20260830082710 | 78 | 88 | 1.0 | 3.0 | 0.00 | 0.00 | 0.00 | 50 | 1015.9 |
| 20260830082214 | 78 | 88 | 1.0 | 4.0 | 0.00 | 0.00 | 0.00 | 51 | 1015.9 |
| 20260830081710 | 78 | 165 | 1.0 | 4.0 | 0.00 | 0.00 | 0.00 | 51 | 1015.9 |
| 20260830081210 | 77 | 127 | 2.0 | 5.0 | 0.00 | 0.00 | 0.00 | 50 | 1015.9 |
| 20260830080710 | 77 | 178 | 2.0 | 5.0 | 0.00 | 0.00 | 0.00 | 52 | 1015.9 |
| 20260830080218 | 77 | 75 | 2.0 | 5.0 | 0.00 | 0.00 | 0.00 | 50 | 1015.9 |
| 20260830075709 | 77 | 63 | 1.0 | 4.0 | 0.00 | 0.00 | 0.00 | 52 | 1015.9 |
| 20260830075215 | 76 | 265 | 1.0 | 3.0 | 0.00 | 0.00 | 0.00 | 53 | 1015.9 |
| 20260830074214 | 75 | 104 | 2.0 | 3.0 | 0.00 | 0.00 | 0.00 | 54 | 1015.9 |
| 20260830073712 | 75 | 150 | 2.0 | 3.0 | 0.00 | 0.00 | 0.00 | 56 | 1015.9 |
| 20260830073217 | 74 | 94 | 1.0 | 3.0 | 0.00 | 0.00 | 0.00 | 57 | 1015.9 |
| 20260830072706 | 73 | 103 | 1.0 | 3.0 | 0.00 | 0.00 | 0.00 | 58 | 1015.9 |
| 20260830072216 | 72 | 94 | 1.0 | 3.0 | 0.00 | 0.00 | 0.00 | 58 | 1015.9 |
| 20260830071217 | 70 | 232 | 2.0 | 5.0 | 0.00 | 0.00 | 0.00 | 61 | 1015.8 |
| 20260830070705 | 70 | 232 | 3.0 | 5.0 | 0.00 | 0.00 | 0.00 | 62 | 1015.9 |
| 20260830070212 | 69 | 229 | 3.0 | 5.0 | 0.00 | 0.00 | 0.00 | 63 | 1015.8 |
| 20260830065718 | 69 | 247 | 3.0 | 5.0 | 0.00 | 0.00 | 0.00 | 64 | 1015.8 |
| 20260830065217 | 68 | 207 | 3.0 | 5.0 | 0.00 | 0.00 | 0.00 | 64 | 1015.8 |
| 20260830064706 | 68 | 249 | 2.0 | 5.0 | 0.00 | 0.00 | 0.00 | 66 | 1015.8 |
| 20260830064215 | 67 | 183 | 2.0 | 5.0 | 0.00 | 0.00 | 0.00 | 66 | 1015.7 |
| 20260830063719 | 67 | 188 | 3.0 | 5.0 | 0.00 | 0.00 | 0.00 | 68 | 1015.7 |
| 20260830063216 | 66 | 210 | 3.0 | 5.0 | 0.00 | 0.00 | 0.00 | 69 | 1015.7 |
| 20260830062218 | 65 | 224 | 2.0 | 4.0 | 0.00 | 0.00 | 0.00 | 71 | 1015.7 |
| 20260830061709 | 65 | 187 | 2.0 | 3.0 | 0.00 | 0.00 | 0.00 | 72 | 1015.7 |
| 20260830060707 | 64 | 202 | 1.0 | 4.0 | 0.00 | 0.00 | 0.00 | 74 | 1015.6 |
| 20260830060210 | 63 | 237 | 2.0 | 5.0 | 0.00 | 0.00 | 0.00 | 74 | 1015.6 |
| 20260830055705 | 63 | 257 | 2.0 | 5.0 | 0.00 | 0.00 | 0.00 | 75 | 1015.6 |
| 20260830055206 | 62 | 236 | 3.0 | 8.0 | 0.00 | 0.00 | 0.00 | 75 | 1015.6 |
| 20260830054205 | 61 | 240 | 4.0 | 8.0 | 0.00 | 0.00 | 0.00 | 77 | 1015.6 |
| 20260830053704 | 61 | 244 | 4.0 | 7.0 | 0.00 | 0.00 | 0.00 | 78 | 1015.5 |
| 20260830053216 | 60 | 245 | 3.0 | 7.0 | 0.00 | 0.00 | 0.00 | 79 | 1015.5 |
| 20260830052711 | 60 | 257 | 3.0 | 4.0 | 0.00 | 0.00 | 0.00 | 80 | 1015.4 |
| 20260830052218 | 60 | 263 | 2.0 | 4.0 | 0.00 | 0.00 | 0.00 | 80 | 1015.4 |
| 20260830051734 | 60 | 235 | 1.0 | 4.0 | 0.00 | 0.00 | 0.00 | 80 | 1015.4 |
| 20260830051212 | 59 | 180 | 0.0 | 2.0 | 0.00 | 0.00 | 0.00 | 81 | 1015.4 |
| 20260830050713 | 59 | 268 | 0.0 | 0.0 | 0.00 | 0.00 | 0.00 | 80 | 1015.4 |
| 20260830050210 | 59 | 268 | 0.0 | 0.0 | 0.00 | 0.00 | 0.00 | 80 | 1015.4 |
| 20260830045712 | 59 | 268 | 0.0 | 0.0 | 0.00 | 0.00 | 0.00 | 80 | 1015.3 |
| 20260830045207 | 59 | 268 | 0.0 | 0.0 | 0.00 | 0.00 | 0.00 | 80 | 1015.3 |
| 20260830044720 | 59 | 268 | 0.0 | 0.0 | 0.00 | 0.00 | 0.00 | 80 | 1015.4 |
| 20260830044209 | 59 | 268 | 0.0 | 0.0 | 0.00 | 0.00 | 0.00 | 80 | 1015.3 |
| 20260830043707 | 59 | 268 | 0.0 | 0.0 | 0.00 | 0.00 | 0.00 | 79 | 1015.4 |
| 20260830042234 | 59 | 268 | 0.0 | 0.0 | 0.00 | 0.00 | 0.00 | 79 | 1015.2 |
| 20260830041711 | 59 | 268 | 0.0 | 0.0 | 0.00 | 0.00 | 0.00 | 78 | 1015.2 |
| 20260830041207 | 59 | 268 | 0.0 | 0.0 | 0.00 | 0.00 | 0.00 | 78 | 1015.2 |
| 20260830040713 | 59 | 268 | 0.0 | 0.0 | 0.00 | 0.00 | 0.00 | 78 | 1015.2 |
| 20260830040213 | 59 | 268 | 0.0 | 3.0 | 0.00 | 0.00 | 0.00 | 78 | 1015.1 |
| 20260830035205 | 59 | 268 | 0.0 | 5.0 | 0.00 | 0.00 | 0.00 | 78 | 1015.0 |
| 20260830034216 | 59 | 268 | 3.0 | 7.0 | 0.00 | 0.00 | 0.00 | 78 | 1014.8 |
| 20260830033710 | 59 | 263 | 4.0 | 7.0 | 0.00 | 0.00 | 0.00 | 78 | 1014.9 |
| 20260830033211 | 59 | 254 | 4.0 | 5.0 | 0.00 | 0.00 | 0.00 | 78 | 1014.9 |
| 20260830032708 | 59 | 258 | 4.0 | 5.0 | 0.00 | 0.00 | 0.00 | 77 | 1014.9 |
| 20260830032206 | 59 | 246 | 3.0 | 5.0 | 0.00 | 0.00 | 0.00 | 77 | 1014.9 |
| 20260830031708 | 59 | 242 | 4.0 | 5.0 | 0.00 | 0.00 | 0.00 | 76 | 1014.8 |
| 20260830030713 | 60 | 238 | 3.0 | 6.0 | 0.00 | 0.00 | 0.00 | 76 | 1014.9 |
| 20260830030208 | 60 | 263 | 3.0 | 4.0 | 0.00 | 0.00 | 0.00 | 76 | 1014.9 |
| 20260830025720 | 60 | 263 | 3.0 | 4.0 | 0.00 | 0.00 | 0.00 | 75 | 1014.9 |
| 20260830025207 | 60 | 257 | 2.0 | 0.0 | 0.00 | 0.00 | 0.00 | 75 | 1014.8 |
| 20260830024212 | 61 | 332 | 0.0 | 0.0 | 0.00 | 0.00 | 0.00 | 75 | 1014.7 |
| 20260830023713 | 61 | 332 | 0.0 | 0.0 | 0.00 | 0.00 | 0.00 | 74 | 1014.8 |
| 20260830023209 | 61 | 332 | 0.0 | 0.0 | 0.00 | 0.00 | 0.00 | 74 | 1014.8 |
| 20260830022716 | 61 | 332 | 0.0 | 0.0 | 0.00 | 0.00 | 0.00 | 74 | 1014.8 |